Missoula, Montana, United States (59801)
Lat: 46.87N, Lon: 113.99W
Wx Zone: MTZ005
Local Info
Past Weather Observations for Today

NOTE: This archive is for the closest National Weather Service station to Missoula. Information may differ from the station used for current weather conditions.

Time Weather Temperature Dewpoint Humidity Pressure Winds Precip Visibility
16:53
Overcast
48°F / 9°C 30°F / -1°C 50% 30.01 in
(1016 mb)
SE 6.9 mph
(SE 11 kph)
0.00 in
(0.00 mm)
10SM
15:53
Overcast
48°F / 9°C 30°F / -1°C 50% 30.01 in
(1016 mb)
E 8.1 mph
(E 13 kph)
- 10SM
14:53
Overcast
48°F / 9°C 28°F / -2°C 46% 30.01 in
(1016 mb)
NNE 8.1 mph
(NNE 13 kph)
0.00 in
(0.00 mm)
10SM
13:53
Overcast
48°F / 9°C 28°F / -2°C 46% 30.04 in
(1017 mb)
Calm 0.00 in
(0.00 mm)
10SM
12:53
Overcast
Light Rain
46°F / 8°C 30°F / -1°C 53% 30.04 in
(1017 mb)
N 6.9 mph
(N 11 kph)
0.00 in
(0.00 mm)
10SM
12:30
Overcast
Light Rain
45°F / 7°C 30°F / -1°C 57% 30.04 in
(1017 mb)
NE 4.6 mph
(NE 7 kph)
0.00 in
(0.00 mm)
8SM
11:53
Overcast
46°F / 8°C 27°F / -3°C 46% 30.04 in
(1017 mb)
NNW 6.9 mph
(NNW 11 kph)
- 10SM
10:53
Overcast
46°F / 8°C 28°F / -2°C 50% 30.04 in
(1017 mb)
NNW 5.8 mph
(NNW 9 kph)
- 10SM
09:53
Clear
43°F / 6°C 36°F / 2°C 76% 30.04 in
(1017 mb)
Calm - 10SM
08:53
Partly Cloudy
36°F / 2°C 36°F / 2°C 100% 30.04 in
(1017 mb)
WNW 3.5 mph
(WNW 6 kph)
- 10SM
08:42
Partly Cloudy
36°F / 2°C 34°F / 1°C 93% 30.04 in
(1017 mb)
NW 3.5 mph
(NW 6 kph)
- 10SM
07:53
Clear
32°F / 0°C 30°F / -1°C 93% 30.04 in
(1017 mb)
Calm - 10SM
07:28
Partly Cloudy
30°F / -1°C 30°F / -1°C 100% 30.04 in
(1017 mb)
Calm - 9SM
07:17
Mostly Cloudy
Fog And Mist
30°F / -1°C 28°F / -2°C 93% 30.04 in
(1017 mb)
Calm - 3SM
07:15
Mostly Cloudy
Fog And Mist
30°F / -1°C 28°F / -2°C 93% 30.04 in
(1017 mb)
Calm - 1 3/4SM
07:13
Obscured
Fog And Mist
30°F / -1°C 28°F / -2°C 93% 30.04 in
(1017 mb)
Calm - 1SM
06:53
Obscured
Fog
28°F / -2°C 28°F / -2°C 100% 30.04 in
(1017 mb)
Calm - 1/4SM
06:40
Obscured
Fog
28°F / -2°C 28°F / -2°C 100% 30.04 in
(1017 mb)
NW 3.5 mph
(NW 6 kph)
- 1/4SM
06:33
Obscured
Fog
28°F / -2°C 27°F / -3°C 93% 30.04 in
(1017 mb)
WNW 3.5 mph
(WNW 6 kph)
- 1/2SM
06:26
Obscured
Fog And Mist
27°F / -3°C 27°F / -3°C 100% 30.04 in
(1017 mb)
Calm - 1SM
06:23
Partly Cloudy
Fog And Mist
27°F / -3°C 27°F / -3°C 100% 30.04 in
(1017 mb)
NW 3.5 mph
(NW 6 kph)
- 2 1/2SM
06:16
Partly Cloudy
28°F / -2°C 27°F / -3°C 93% 30.04 in
(1017 mb)
W 4.6 mph
(W 7 kph)
- 8SM
06:08
Partly Cloudy
Fog And Mist
28°F / -2°C 28°F / -2°C 100% 30.01 in
(1016 mb)
Calm - 2 1/2SM
05:58
Partly Cloudy
Fog And Mist
28°F / -2°C 28°F / -2°C 100% 30.01 in
(1016 mb)
Calm - 3SM
05:56
Partly Cloudy
Fog And Mist
28°F / -2°C 28°F / -2°C 100% 30.01 in
(1016 mb)
Calm - 1 1/4SM
05:53
Obscured
Fog And Mist
28°F / -2°C 27°F / -3°C 93% 30.01 in
(1016 mb)
Calm - 1SM
05:23
Obscured
Fog And Mist
27°F / -3°C 27°F / -3°C 100% 30.01 in
(1016 mb)
NW 3.5 mph
(NW 6 kph)
- 3/4SM
05:21
Partly Cloudy
Fog And Mist
27°F / -3°C 27°F / -3°C 100% 30.01 in
(1016 mb)
NW 4.6 mph
(NW 7 kph)
- 1 1/4SM
05:18
Partly Cloudy
Fog And Mist
27°F / -3°C 27°F / -3°C 100% 30.01 in
(1016 mb)
Calm - 2 1/2SM
04:53
Clear
28°F / -2°C 27°F / -3°C 93% 30.01 in
(1016 mb)
Calm - 10SM
03:53
Clear
28°F / -2°C 27°F / -3°C 93% 30.01 in
(1016 mb)
W 3.5 mph
(W 6 kph)
- 9SM
02:53
Clear
30°F / -1°C 28°F / -2°C 93% 30.01 in
(1016 mb)
NNE 3.5 mph
(NNE 6 kph)
- 10SM
01:53
Partly Cloudy
34°F / 1°C 32°F / 0°C 93% 30.01 in
(1016 mb)
Calm - 10SM
00:53
Mostly Cloudy
34°F / 1°C 32°F / 0°C 93% 30.01 in
(1016 mb)
Calm - 10SM
Time Weather Temperature Dewpoint Humidity Pressure Winds Precip Visibility


Weather for websites

WeatherForYou.com, LLC is not responsible for any damages or problems caused by this service. Current weather conditions are obtained from the closest station including government and personal stations which may have varying degrees of accuracy. Weather forecasts are derived from the NOAA NDFD. Like all things, this site belongs to Jesus Christ... He just trusts me to maintain it. If you have any questions or comments email webmaster@weatherforyou.com

Copyright © 2014, WeatherForYou.com LLC. All rights reserved.